sat.trackr.live / text

‹ back to catalog

STARLINK-35468

NORAD 66118 · 2025-237E

PAYLOAD ACTIVE UNKNOWN

§ Identity

Operator
Country
US
Launch date
2025-10-22
Launch site
AFWTR
Launch vehicle
Mass (kg)
RCS (m²)

Purposes: comms

External: N2YO · Heavens-Above · Gunter

§ Orbital elements

Epoch: 2026-05-25T00:26:29.678784Z

Period
94.11 min
Inclination
53.1584°
Eccentricity
0.0001119
Mean motion
15.30202819 rev/d
Perigee alt
474.4 km
Apogee alt
476.0 km
Semi-major
6,853.3 km
B*
6.4136e-4
RAAN
45.3126°
Arg perigee
86.2158°
Mean anomaly
273.8970°
Rev number
3,429

§ Raw data

STARLINK-354681 66118U 25237E   26145.01839906  .00018685  00000+0  64136-3 0  99952 66118  53.1584  45.3126 0001119  86.2158 273.8970 15.30202819 34298

JSON: /api/v1/satellites/66118 · /tle

For live sub-satellite position, see the globe view (requires WebGL).

§ Visibility from observer

Set your observer location to see the next 7 days of passes ≥ 10°. The values pass through the URL so the page stays shareable.

No JS? Fill the form by hand. The geolocation button needs JavaScript.